Weather History for Fort Smith, AR

Change the Weather History Date:

Sunday, June 16, 2013

  Actual Average Record
Temperature  
Mean Temperature 82 °F 78 °F  
Max Temperature 92 °F 88 °F 101 °F (1936)
Min Temperature 71 °F 68 °F 52 °F (1989)
Cooling Degree Days 17 13  
Month to date cooling degree days 202 180  
Year to date cooling degree days 476 424  
Since 1 June cooling degree days 202 180  
Growing Degree Days 31 (Base 50)    
Moisture  
Dew Point 72 °F    
Average Humidity 77    
Maximum Humidity 93    
Minimum Humidity 60    
Precipitation  
Precipitation 2.70 in 0.14 in 2.72 in (1935)
Month to date precipitation 5.49 2.40  
Year to date precipitation 26.47 21.59  
Sea Level Pressure  
Sea Level Pressure 29.95 in    
Wind  
Wind Speed 6 mph (East)    
Max Wind Speed 17 mph    
Max Gust Speed 25 mph    
Visibility 8 miles    
Events Fog , Rain , Thunderstorm    
T = Trace of Precipitation, MM = Missing Value Source: NWS Daily Summary

Daily Weather History Graph

Daily Weather History Graph

Search for Another Location

Airport:

Trip Planner

Search our weather history database for the weather conditions in past years. The results will help you decide how hot, cold, wet, or windy it might be!

Date:

Astronomy

Jun. 16, 2013 Rise Set
Actual Time 6:02 AM CDT 8:34 PM CDT
Civil Twilight 5:32 AM CDT 9:04 PM CDT
Nautical Twilight 4:55 AM CDT 9:41 PM CDT
Astronomical Twilight 4:14 AM CDT 10:22 PM CDT
Moon 1:23 PM CDT (6/16) 12:53 AM CDT (6/16)
Length of Visible Light 15h 31m
Length of Day
14h 32m
Waxing Crescent, 50% of the Moon is Illuminated
Jun 16
Waxing Crescent
Jun 16
First Quarter
Jun 23
Full
Jun 29
Last Quarter
Jul 8
New

Hourly Weather History & Observations

Time (CDT) Temp. Heat Index Dew Point Humidity Pressure Visibility Wind Dir Wind Speed Gust Speed Precip Events Conditions
12:53 AM 80.1 °F 83.6 °F 71.1 °F 74% 29.95 in 10.0 mi NE 4.6 mph - N/A   Clear
1:53 AM 80.1 °F 83.2 °F 70.0 °F 71% 29.92 in 10.0 mi East 4.6 mph - 0.00 in Rain Light Rain
2:53 AM 79.0 °F - 69.1 °F 72% 29.93 in 10.0 mi Calm Calm - 0.00 in   Clear
3:53 AM 78.1 °F - 70.0 °F 76% 29.94 in 10.0 mi Calm Calm - N/A   Mostly Cloudy
4:53 AM 78.1 °F - 71.1 °F 79% 29.96 in 10.0 mi Calm Calm - 0.00 in   Overcast
5:00 AM 78.8 °F - 71.6 °F 78% 29.99 in 10.0 mi Calm Calm - N/A Thunderstorm Thunderstorm
5:21 AM 71.6 °F - 68.0 °F 88% 29.98 in 2.0 mi NNE 4.6 mph - 0.15 in Rain , Thunderstorm Heavy Thunderstorms and Rain
5:25 AM 71.6 °F - 69.8 °F 94% 29.98 in 1.2 mi ESE 8.1 mph - 0.31 in Rain Heavy Rain
5:53 AM 72.0 °F - 70.0 °F 93% 29.97 in 1.2 mi Variable 4.6 mph - 1.11 in Rain Heavy Rain
6:28 AM 71.6 °F - 71.6 °F 100% 29.99 in 5.0 mi NE 8.1 mph - 0.57 in Rain Light Rain
6:53 AM 73.0 °F - 70.0 °F 90% 29.98 in 9.0 mi East 6.9 mph - 0.58 in Rain Light Rain
7:53 AM 73.0 °F - 70.0 °F 90% 30.00 in 10.0 mi East 3.5 mph - 0.00 in   Overcast
8:53 AM 73.9 °F - 71.1 °F 91% 30.00 in 10.0 mi East 6.9 mph - N/A   Scattered Clouds
9:17 AM 73.4 °F - 69.8 °F 88% 30.03 in 10.0 mi ENE 10.4 mph - N/A   Overcast
9:53 AM 77.0 °F - 72.0 °F 84% 30.01 in 10.0 mi East 9.2 mph - N/A   Mostly Cloudy
10:53 AM 79.0 °F - 72.0 °F 79% 29.99 in 10.0 mi ENE 8.1 mph 16.1 mph 0.00 in   Mostly Cloudy
11:53 AM 84.0 °F 91.2 °F 73.9 °F 72% 29.98 in 10.0 mi ENE 6.9 mph - N/A   Clear
12:53 PM 87.1 °F 96.3 °F 75.0 °F 67% 29.96 in 10.0 mi ENE 6.9 mph - N/A   Clear
1:53 PM 88.0 °F 97.5 °F 75.0 °F 65% 29.95 in 10.0 mi ENE 6.9 mph - N/A   Clear
2:53 PM 91.0 °F 101.6 °F 75.0 °F 59% 29.92 in 10.0 mi NE 6.9 mph - N/A   Clear
3:42 PM 87.8 °F 97.6 °F 75.2 °F 66% 29.91 in 10.0 mi East 6.9 mph - N/A Thunderstorm Scattered Clouds
3:53 PM 87.1 °F 96.3 °F 75.0 °F 67% 29.89 in 10.0 mi East 4.6 mph - N/A Thunderstorm Mostly Cloudy
4:22 PM 78.8 °F - 73.4 °F 83% 29.94 in 1.8 mi South 13.8 mph - 0.05 in Rain , Thunderstorm Heavy Thunderstorms and Rain
4:31 PM 77.0 °F - 73.4 °F 89% 29.94 in 0.5 mi East 9.2 mph - 0.32 in Fog , Rain , Thunderstorm Heavy Thunderstorms and Rain
4:50 PM 77.0 °F - 73.4 °F 89% 29.96 in 1.5 mi ESE 13.8 mph 21.9 mph 0.88 in Rain , Thunderstorm Light Thunderstorms and Rain
4:53 PM 77.0 °F - 73.9 °F 90% 29.94 in 2.5 mi SE 12.7 mph - 0.89 in Rain , Thunderstorm Thunderstorms and Rain
5:02 PM 77.0 °F - 73.4 °F 89% 29.94 in 3.0 mi East 11.5 mph - 0.05 in Rain , Thunderstorm Light Thunderstorms and Rain
5:19 PM 77.0 °F - 73.4 °F 89% 29.95 in 9.0 mi East 11.5 mph - 0.05 in Rain Light Rain
5:53 PM 75.9 °F - 72.0 °F 87% 29.93 in 10.0 mi ENE 10.4 mph - 0.05 in   Mostly Cloudy
6:50 PM 75.2 °F - 71.6 °F 89% 29.95 in 10.0 mi North 12.7 mph - N/A Thunderstorm Mostly Cloudy
6:53 PM 75.0 °F - 71.1 °F 87% 29.94 in 10.0 mi NNE 12.7 mph - N/A Thunderstorm Mostly Cloudy
7:29 PM 75.2 °F - 69.8 °F 83% 29.94 in 10.0 mi South 8.1 mph - N/A   Scattered Clouds
7:53 PM 75.0 °F - 70.0 °F 84% 29.95 in 10.0 mi WSW 3.5 mph - 0.00 in Rain , Thunderstorm Light Thunderstorms and Rain
8:53 PM 73.9 °F - 71.1 °F 91% 29.99 in 10.0 mi NW 6.9 mph - 0.01 in Rain , Thunderstorm Light Thunderstorms and Rain
9:53 PM 73.9 °F - 71.1 °F 91% 29.92 in 10.0 mi SSE 4.6 mph - 0.05 in Rain , Thunderstorm Light Thunderstorms and Rain
10:00 PM 73.4 °F - 69.8 °F 88% 29.92 in 10.0 mi SSW 10.4 mph 17.3 mph 0.00 in Rain Light Rain
10:21 PM 73.4 °F - 69.8 °F 88% 29.93 in 10.0 mi SSW 10.4 mph - 0.01 in   Partly Cloudy
10:53 PM 73.0 °F - 69.1 °F 87% 29.89 in 10.0 mi WSW 3.5 mph - 0.01 in   Clear
11:53 PM 72.0 °F - 69.1 °F 91% 29.93 in 10.0 mi NW 8.1 mph - N/A   Clear